Location: Unspecified
(51.5147°N, 7.4673°E)
Time: 06:38:53
(UTC+01:00)

Transit 4A - Pass Details

Date: 23 February 2026
Orbit: 863 x 978 km, 66.8° (Epoch: 14 March)

Event Time Altitude Azimuth Distance (km) Brightness Sun altitude
Exits shadow 02:19:38 15° 65° (ENE) 2,241 10.3 -44.0°
Drops below altitude 10° 02:20:56 10° 56° (NE) 2,604 10.8 -43.9°
Sets 02:23:53 0° 44° (NE) 3,572 11.7 -43.6°
